EHI
0 0 0 0 0 0 0 0 0 0 0 0 0 0 0 0 0 0 0 0 0 0 0 0 0 0 0 0 1 2 3 3 3 2 1 0 0 0 0 0 0 0 0 0
0 0 0 0 0 0 0 0 0 0 0 0 0 0 0 0 0 0 0 0 0 0 0 0 0 0 0 0 1 2 3 3 3 2 1 0 0 0 0 0 0 0 0 0
0 0 0 0 0 0 0 0 0 0 0 0 0 0 0 0 0 0 0 0 0 0 1 0 0 0 0 0 0 1 1 2 3 2 1 0 0 0 0 0 0 0 0 0
0 0 0 0 0 0 0 0 0 0 0 0 0 0 0 0 0 0 0 0 0 0 0 0 0 0 0 1 1 0 0 1 2 1 0 0 0 0 0 0 0 0 0 0
0 0 0 0 0 0 0 0 0 0 0 0 0 0 0 0 0 0 0 0 0 0 0 0 0 0 1 2 2 1 0 1 2 1 0 0 0 0 0 0 0 0 0 0
0 0 0 0 0 0 0 0 0 0 0 0 0 0 0 0 0 0 0 0 0 0 0 0 0 1 3 4 4 2 1 3 4 2 1 0 0 0 0 0 0 0 0 0
0 0 0 0 0 0 0 0 0 0 0 0 0 0 0 0 0 0 0 0 0 0 0 0 0 1 4 5 4 2 2 4 5 3 1 0 0 0 0 0 0 0 0 0
0 0 0 0 0 0 0 0 0 0 0 0 0 0 0 0 0 0 0 0 0 0 0 0 0 1 2 3 3 2 2 3 5 4 2 1 0 0 0 0 0 0 0 0
0 0 0 0 0 0 0 0 0 0 0 0 0 0 0 0 0 0 0 0 1 2 1 0 0 0 1 1 1 1 1 3 4 3 3 2 0 0 0 0 0 0 0 0
0 0 0 0 0 0 0 0 0 0 0 0 0 0 0 0 0 0 0 1 2 3 2 1 0 0 0 0 0 1 1 3 3 3 3 1 1 0 0 0 0 0 0 0
0 0 0 0 0 0 0 0 0 0 0 0 0 0 0 0 0 0 0 1 2 3 2 1 0 0 0 0 0 0 1 2 3 3 2 1 1 0 0 0 0 0 0 0
0 0 0 0 0 0 0 0 0 0 0 0 0 0 0 0 0 0 0 1 2 3 1 0 0 0 0 0 0 0 1 1 2 2 1 0 0 0 0 0 0 0 0 0
0 0 0 0 0 0 0 0 0 0 0 0 0 0 0 0 0 0 0 1 2 2 1 0 0 0 0 0 0 0 0 1 1 1 0 0 0 0 0 0 0 0 0 0
0 0 0 0 0 0 0 0 0 0 0 0 0 0 0 0 0 0 0 0 1 1 0 0 0 0 0 0 0 0 0 0 0 0 0 0 0 0 0 1 1 0 0 0
0 0 0 0 0 0 0 0 0 0 0 0 0 0 0 0 0 0 0 0 0 0 0 0 0 0 0 0 0 0 0 0 0 0 0 0 1 1 1 2 2 1 0 0
0 0 0 0 0 0 0 0 0 0 0 0 0 0 0 0 0 0 0 0 0 0 0 0 0 0 0 0 0 0 0 0 0 0 0 1 2 2 1 2 3 2 1 0
0 0 0 0 0 0 0 0 0 0 0 0 0 0 0 0 0 0 0 0 0 0 0 0 0 0 0 0 0 0 0 0 0 0 0 1 3 2 1 1 2 2 2 1
0 0 0 0 0 0 0 0 0 0 0 0 0 0 0 0 0 0 0 0 0 0 0 0 0 0 0 0 0 0 0 0 0 1 1 2 3 2 1 0 1 1 2 3
0 0 0 0 0 0 0 0 0 0 0 0 0 0 0 0 0 0 0 0 0 0 0 0 0 0 0 0 0 0 0 0 0 0 1 2 3 2 1 0 0 1 2 3
0 0 0 0 0 0 0 0 0 0 0 0 0 0 0 0 0 0 0 0 0 0 0 0 0 0 0 0 0 0 0 0 0 0 0 1 1 1 1 1 1 1 2 2
0 0 0 0 0 0 0 0 0 0 0 0 0 0 0 0 0 0 0 0 0 0 0 0 0 0 0 0 0 0 0 0 0 0 0 0 0 0 1 1 2 1 1 1
0 0 0 0 0 0 0 0 0 0 0 0 0 0 0 0 0 0 0 0 0 0 0 0 0 0 0 0 0 0 0 0 0 0 0 0 0 0 0 1 1 1 0 0
0 0 0 0 0 0 0 0 0 0 0 0 0 0 0 0 0 0 0 0 0 0 0 0 0 1 2 1 0 1 1 1 0 0 0 0 0 0 0 0 0 0 0 0
0 0 0 0 0 0 0 0 0 0 0 0 0 0 0 0 0 0 0 0 0 0 0 0 0 1 2 2 2 2 2 2 1 0 0 0 0 0 0 0 0 0 0 0
0 0 0 0 0 0 0 0 0 0 0 0 0 0 0 0 0 0 0 0 0 0 0 0 0 1 1 2 2 3 3 3 2 1 0 0 0 0 0 0 0 0 0 0
0 0 0 0 0 0 0 0 0 0 0 0 0 0 0 0 0 0 0 0 0 0 0 0 0 0 0 1 2 3 3 3 2 1 0 0 0 0 0 0 0 0 0 0
Wind_Speed
3 5 4 3 3 3 2 3 2 1 0 4 5 5 4 3 4 5 5 6 6 6 6 6 5 5 5 5 5 5 5 4 3 2 2 2 2 2 2 2 3 2 2 2
5 5 3 2 3 4 5 5 3 1 1 4 4 6 4 3 5 5 6 6 6 6 7 7 6 6 5 5 5 5 5 4 4 2 2 2 2 2 2 2 2 2 2 2
5 0 2 5 6 5 6 6 4 4 3 5 6 5 5 4 4 4 5 5 6 6 7 7 7 7 6 5 5 5 5 5 4 4 3 2 2 2 2 2 2 1 1 2
4 2 4 6 5 6 5 4 5 6 7 3 4 4 2 4 4 4 5 5 6 6 6 6 7 7 7 6 5 5 5 5 5 5 4 4 3 2 2 2 2 2 2 2
3 3 4 5 4 5 3 2 5 6 7 7 5 6 1 3 3 3 3 4 5 6 6 6 6 6 5 5 5 5 5 5 5 4 4 4 3 2 2 2 3 2 2 2
3 3 3 3 2 3 2 4 5 6 6 7 4 6 2 1 1 1 2 3 5 5 6 6 6 5 5 5 5 5 5 5 5 5 5 5 4 3 3 2 2 2 2 2
5 5 4 3 4 5 6 6 4 5 5 3 1 5 2 2 1 1 1 2 3 4 5 5 6 6 5 6 5 5 5 5 5 5 5 5 4 4 4 3 3 2 2 2
5 5 4 2 4 4 5 7 6 4 4 3 4 5 1 2 1 1 0 1 2 3 3 4 5 5 6 6 6 5 5 5 5 5 5 4 4 3 2 3 2 2 2 2
4 3 3 1 2 4 5 6 5 7 6 6 4 3 2 2 1 1 1 2 2 2 3 4 5 5 5 6 6 6 6 5 5 5 4 4 4 4 3 3 3 2 2 2
4 5 3 2 4 3 4 3 5 6 6 7 5 6 3 2 2 1 1 1 1 2 3 3 4 5 5 5 5 6 6 5 5 4 4 3 3 3 3 3 3 3 2 2
6 6 4 5 6 5 5 6 6 6 6 7 6 1 2 1 0 1 2 1 2 2 3 3 4 4 4 5 5 5 5 5 5 4 4 4 3 3 3 2 2 2 2 3
4 6 6 5 2 4 6 7 8 8 7 7 7 2 4 1 0 1 1 1 2 2 3 3 4 4 4 5 5 5 5 5 4 4 5 4 3 3 3 3 3 3 3 2
3 6 7 5 6 6 6 6 7 8 8 8 9 4 4 1 1 1 1 0 1 2 3 3 3 4 4 4 4 4 4 4 4 4 4 4 4 3 3 3 2 2 2 2
5 8 9 9 5 3 6 7 8 10 9 10 11 9 5 3 2 2 1 1 1 2 3 3 3 3 4 4 4 5 4 4 5 5 4 4 4 3 3 3 2 2 2 2
5 8 9 9 7 7 10 10 10 13 13 12 10 9 8 6 4 3 2 2 2 2 2 3 3 3 3 4 4 5 4 4 5 5 5 4 3 3 3 3 3 2 2 2
5 7 8 9 7 8 11 11 12 13 12 12 11 10 7 6 4 4 3 3 3 3 3 3 3 3 4 4 4 5 5 4 5 6 5 4 4 3 3 3 3 3 3 3
4 6 7 9 6 9 11 8 9 9 8 10 11 7 4 5 5 4 3 3 4 3 3 3 3 4 4 4 4 4 5 5 5 5 5 5 4 4 4 3 3 3 3 3
7 7 5 7 7 10 2 1 3 5 6 6 6 5 5 6 5 5 4 3 3 3 3 3 3 3 4 4 4 4 4 5 5 5 5 5 5 4 4 4 3 3 3 3
8 7 6 6 9 9 4 2 3 6 5 4 5 5 4 4 4 4 1 2 3 3 4 4 4 4 4 5 5 5 5 5 5 5 5 5 5 5 5 5 4 3 3 3
5 7 7 7 8 8 1 1 2 6 6 1 2 3 3 2 5 2 2 3 4 4 4 4 4 4 4 5 5 6 6 6 6 6 5 5 5 5 5 5 5 4 3 3
5 6 9 10 9 6 1 1 3 6 2 2 3 3 3 4 5 5 5 4 4 4 4 4 4 4 4 4 5 6 6 6 5 5 5 5 5 5 5 5 4 4 4 3
6 6 7 7 9 5 2 2 4 4 5 5 5 5 5 6 6 5 5 5 5 4 4 4 4 4 4 5 6 6 6 5 5 5 5 5 5 5 4 4 4 4 4 4
6 5 3 5 4 3 1 2 4 5 5 6 6 5 5 6 6 6 6 5 4 4 3 3 4 4 4 5 6 6 5 5 5 5 5 5 6 5 5 5 5 4 4 4
4 3 5 6 6 5 4 4 4 5 6 7 7 7 6 6 6 6 5 4 4 4 3 3 3 4 4 5 6 6 5 5 6 6 6 5 5 5 5 4 4 4 4 5
4 4 6 8 7 6 6 5 6 6 7 7 7 7 6 6 6 5 5 5 4 4 3 3 3 4 4 4 5 5 5 6 6 6 6 6 6 5 5 5 4 5 5 4
7 8 8 7 6 7 7 6 6 7 8 7 7 7 7 6 6 6 5 5 4 4 4 4 4 4 4 4 4 5 5 6 6 6 6 5 5 5 5 4 4 2 3 3
Wind_Direction
192 213 211 209 231 265 244 248 265 298 229 254 257 264 265 225 221 227 220 210 202 198 188 179 179 177 176 173 174 164 165 155 151 146 145 135 123 116 101 84 75 84 98 108
194 215 231 222 210 217 228 244 256 250 210 264 276 273 266 231 228 234 233 217 207 201 187 177 181 180 183 174 178 175 175 166 161 154 158 151 136 123 102 105 101 103 116 122
222 180 184 201 202 221 234 250 265 280 268 238 273 257 218 202 211 221 229 226 211 202 197 185 186 185 183 182 180 180 183 174 169 163 162 155 147 155 143 135 123 115 123 131
228 203 200 215 224 245 248 249 257 264 267 265 263 283 216 204 209 212 215 211 208 200 203 195 192 190 188 186 184 186 183 183 174 170 176 173 178 168 158 144 140 150 143 135
202 194 212 225 240 248 275 262 252 259 265 266 242 267 224 191 215 205 200 205 204 201 200 195 192 190 184 179 183 188 182 183 180 181 182 193 187 165 149 144 151 156 136 140
233 211 244 260 247 234 225 219 223 235 248 251 246 259 268 175 267 241 191 194 200 198 194 192 182 175 171 165 170 176 179 175 178 186 189 195 184 172 164 165 156 159 147 152
209 200 200 230 221 194 226 249 242 224 222 244 218 252 267 55 355 303 234 181 177 182 187 183 175 171 168 165 166 172 176 173 178 189 193 193 190 189 184 178 170 178 166 167
230 202 179 220 252 248 232 250 267 280 275 268 214 242 103 82 17 317 288 140 138 160 175 173 171 169 168 168 171 174 177 176 180 189 193 195 187 198 189 189 185 187 180 173
249 218 152 212 260 255 232 235 273 282 282 273 235 223 191 158 174 107 100 128 148 155 162 170 166 165 166 169 175 180 179 179 180 184 188 190 191 198 195 196 198 194 186 173
268 257 201 176 200 204 268 251 231 247 266 262 249 239 235 182 190 190 198 172 159 154 154 158 164 167 165 166 171 176 179 180 180 182 180 176 186 193 200 204 204 206 196 182
252 252 216 205 225 233 210 218 236 248 263 275 270 237 54 353 205 226 222 194 154 160 154 154 160 165 166 163 165 173 174 178 179 180 174 173 177 189 191 193 196 208 201 193
243 265 252 236 226 272 252 248 240 251 247 253 274 271 110 133 311 280 253 170 155 150 148 149 154 160 164 167 171 173 175 175 176 180 176 176 177 183 189 190 199 198 191 197
231 250 254 220 191 196 222 229 242 259 263 253 255 248 137 187 296 293 294 210 159 153 149 153 158 167 167 172 176 173 174 174 173 177 182 179 181 189 193 196 198 202 194 195
262 250 255 266 288 268 245 238 239 242 250 253 253 264 257 266 275 284 285 246 183 173 172 166 167 174 176 181 181 178 173 174 176 177 184 188 190 194 202 196 196 196 190 199
257 256 256 266 272 264 263 257 245 245 255 264 272 274 282 286 283 276 263 240 215 196 192 190 185 180 182 184 183 179 175 177 179 179 185 192 193 189 193 188 193 191 184 199
263 263 262 257 252 255 260 259 252 251 256 259 265 269 284 294 283 268 250 226 224 220 215 205 205 198 198 188 184 180 180 185 188 187 189 188 190 184 189 192 190 186 185 191
244 255 263 263 257 263 255 253 247 240 244 253 259 269 288 284 281 274 265 230 227 225 227 221 217 210 211 200 188 182 185 185 194 192 186 185 190 189 189 185 184 187 190 184
249 246 256 270 262 251 262 41 262 248 257 254 261 279 285 289 289 277 265 251 241 241 243 244 235 219 213 202 188 183 184 191 196 192 187 185 189 190 188 185 187 197 201 192
240 241 244 252 258 261 244 232 248 251 254 255 256 273 290 301 270 241 241 286 274 271 267 255 242 229 213 203 191 186 188 195 198 196 196 193 189 191 192 191 195 199 204 202
206 230 242 242 257 261 233 79 303 257 245 157 262 271 280 280 266 274 340 301 288 284 279 265 239 226 213 202 193 195 196 199 202 204 206 200 196 197 198 200 201 200 204 212
198 214 231 241 251 259 346 342 250 241 326 26 300 285 266 266 295 315 305 290 283 282 282 265 237 222 215 197 195 205 203 207 209 207 206 204 200 203 202 203 202 202 205 209
241 231 229 233 241 244 108 199 255 317 342 326 315 304 293 292 296 294 291 288 283 282 280 265 238 224 210 201 202 207 209 209 204 204 204 206 205 204 202 201 205 206 207 212
242 258 269 250 268 2 19 277 316 322 306 312 308 299 293 289 289 290 289 286 279 278 279 275 247 230 217 208 208 210 210 202 197 200 203 207 206 205 203 201 203 206 208 220
232 250 251 255 255 270 281 286 293 300 304 307 302 294 286 283 285 283 283 285 286 284 283 281 265 239 226 214 214 217 209 200 200 204 206 211 211 210 207 203 206 212 216 222
253 230 246 255 266 279 273 278 291 303 306 305 302 295 285 281 282 287 287 286 286 281 281 275 267 255 243 229 225 220 210 206 209 210 208 211 211 210 213 210 210 217 220 226
233 236 247 259 270 273 284 294 298 300 302 301 300 298 294 288 283 286 288 289 285 282 281 275 273 264 249 236 234 225 214 212 212 213 210 209 207 209 211 212 211 211 225 218